Showing default

IRIDIUM 129, 42958

Orbit data source: Space-Track

IRIDIUM 129, 42958 is a payload satellite owned by Iridium (US) in LEO that was launched on Mon, 09 Oct 2017 UTC via an FALCON 9 launch vehicle from the Air Force Western Test Range (AFWTR). Payload-class satellites include a variety of spacecraft equipped with specific instruments for various scientific and technological missions. These include communications satellites like Starlink; space stations such as the ISS; scientific satellites like the Hubble; Earth observation satellites from companies like Planet Labs, Umbra, and HawkEye 360; GPS; miniature CubeSats for education and research; and military/defense satellites.

Loading next visibility...
Identifier
42958, 2017-061D
Orbit
LEO
Country
Flag of USUS
Related business
Manufacturer
OATK SSG Gilbert
Mission
Operational Commercial Communications
Bus & Motor
ELITEBUS, Unknown motor
Mass
860 kg wet, 700 kg dry
Launch date (UTC)
2017-10-09 (8 years ago)
Launch vehicle
FALCON 9
Launch site
Air Force Western Test Range (AFWTR)
Object type
Payload
Rocket body
Debris
Shape & HBR
Trap Box + 2 Pan, 4.7 m
Radar Cross Section
14.423 m², Large (>1 m²)

Expand to show TLE details & history
Last TLE update: 15 hours ago

TLE from 15 hours ago
0 IRIDIUM 129
1 42958U 17061D   25261.13095541  .00000130  00000-0  39516-4 0  9999
2 42958  86.3994 139.0079 0001745  91.7653 268.3742 14.34218566415806
Epoch: 2025-09-18T03:08Z
TLE epoch observation values (Epoch: 2025-09-18T03:08:34.547Z)
Latitude
-0.00009°
Longitude
94.56699°
Altitude
780.751 km
Speed
7.463 km/s
True Right ascension
09h 16m 01s
True Declination
0° 00' 00"
Sunlit
Object was in daylight at epoch
Visualization orbit readout
Latitude
Unknown
Longitude
Unknown
Altitude
Unknown
Speed
Unknown
Apparent Right ascension
Unknown
Apparent Declination
Unknown
Sunlit
N/A
Visualization observer readout
Local Sidereal Time
11:21:28
Azimuth
Unknown
Elevation
Unknown
Doppler factor
Unknown
Orbital elements
Apogee altitude
775.877 km
Perigee altitude
773.381 km
Semi-major axis
7,152.766 km
Eccentricity
0.00017
Inclination
86.3994°
RAAN
139.0079°
Arg. of periapsis
91.7653°
True anomaly
268.35421°
Mean anomaly
268.3742°
Eccentric anomaly
268.36421°
Mean motion
3.58783 °/min
Orbital period
100.34 mins
BSTAR
0.000039516
Loading maneuver chart data...
Computing Atmospheric mass density...
Loading historical data...
Loading historical data...
Loading historical data...
Loading historical data...
Loading historical data...
Loading historical data...
Loading historical data...

Documentation

Showing up to 5 results
|